Other Public Products
Issued by NWS Charleston, SC

Current Version | Previous Version | Text Only | Print | Product List | Glossary Off
Versions: 1 2 3 4 5 6 7 8 9 10 11 12 13 14 15 16 17 18 19 20 21 22 23 24 25 26 27 28 29 30 31 32 33 34 35 36 37 38 39 40 41 42 43 44 45 46 47 48 49 50

656
FPUS82 KCHS 191312
OPUCHS

TEST...KCHS/KSAV Gateway Observations...TEST
National Weather Service Charleston SC
800 AM EST SUN NOV 19 2017

NOTE: "fair" indicates few or no clouds below 12,000 feet with no
significant weather and/or obstructions to visibility.

SCZ050-WAZ558-NCZ071-TXZ119-213-PAZ071-DCZ001-FLZ074-172-MI076-
NYZ176-178-MAZ016-IL014-TNZ027-NJZ106-GAZ044-MD014-191400-

...Gateway Observations for Charleston International...

CITY           SKY/WX    TMP DP  RH WIND       PRES   REMARKS
Chas Airport   CLOUDY    61  56  83 W12       29.80R
Seattle        CLOUDY    41  34  76 SE7       30.02F
Charlotte      PTCLDY    49  38  65 NW7       29.84R
Dallas DFW     CLEAR     41  34  76 NW6       30.32R
Dallas Love    CLEAR     42  35  76 CALM      30.34R
Philladelphia  PTSUNNY   50  34  54 W26G40    29.45R
Wash National  MOSUNNY   49  32  52 W23G37    29.63R
Baltimore      MOSUNNY   47  33  58 W17G33    29.59R
Miami          MOSUNNY   71  63  75 CALM      29.99R
Detroit        MOCLDY    35  28  75 W13       29.79R WCI  26
Newark         CLOUDY    53  44  71 W25G40    29.29R
Laguardia      LGT RAIN  58  51  78 W26G36    29.24R
J F K          LGT RAIN  57  54  89 W25G36    29.27R FOG
Boston Logan   LGT RAIN  57  56  96 S13       29.18F
Ft. Lauderdale MOSUNNY   69  65  86 NW3       29.96S
Chicago O`Hare MOCLDY    30  19  63 NW18G25   29.98R WCI  18
Chicago Midway MOCLDY    31  21  66 W14G23    29.99R WCI  21
Houston Bush   PTCLDY    47  38  71 N8        30.29R
Houston Hobby  PTCLDY    49  36  61 N13       30.28R
Nashville      MOCLDY    42  31  64 NW10      30.09R
Atlanta        MOCLDY    44  35  70 NW18      29.99R

$$

GAZ044-118-TXZ119-213-NCZ071-DCZ001-MDZ014-506-PAZ021-071-NJZ106-
NYZ176-178-MAZ106-OHZ011-021-055-MIZ076-KYZ091-ILZ014-INZ047-
MNZ060-ONZ431-191400-

...Gateway Observations for Savannah International...

CITY           SKY/WX    TMP DP  RH WIND       PRES   REMARKS
Savannah Arpt  CLOUDY    60  57  89 NW17G23   29.86R
Atlanta        MOCLDY    44  35  70 NW18      29.99R
Charlotte      PTCLDY    49  38  65 NW7       29.84R
Dallas DFW     CLEAR     41  34  76 NW6       30.32R
Houston Bush   PTCLDY    47  38  71 N8        30.29R
Wash National  MOSUNNY   49  32  52 W23G37    29.63R
Wash Dulles    PTCLDY    46  33  60 NW21G35   29.64R
Baltimore      MOSUNNY   47  33  58 W17G33    29.59R
Philadelphia   PTSUNNY   50  34  54 W26G40    29.45R
Newark         CLOUDY    53  44  71 W25G40    29.29R
Laguardia      LGT RAIN  58  51  78 W26G36    29.24R
J F K          LGT RAIN  57  54  89 W25G36    29.27R FOG
Boston         LGT RAIN  57  56  96 S13       29.18F
Pittsburg      CLOUDY    37  34  89 W12       29.72R WCI  29
Akron          FLURRIES  37  30  75 W10       29.76R WCI  30
Cleveland      CLOUDY    37  33  85 W10       29.80R WCI  30
Cincinnati     CLOUDY    38  32  79 W7        29.95R WCI  33
Columbus       LGT RAIN  38  34  86 NW15G21   29.88R WCI  29
Detroit        MOCLDY    35  28  75 W13       29.79R WCI  26
Chicago O`Hare MOCLDY    30  19  63 NW18G25   29.98R WCI  18
Minneapolis    CLEAR     18  12  77 SW7       30.09R WCI   9
Indianapolis   CLOUDY    34  28  79 W13       29.99R WCI  25
Toronto Canada MOCLDY    36  30  80 NW16G25   29.55R WCI  26

$$




USA.gov is the U.S. government's official web portal to all federal, state and local government web resources and services.